CW8633 Weather Reports


Display with metric or nautical units.
time (UTC)temp
F
wind
direction
speed
MPH
gust
MPH
rain 1hr
in
rain 24hr
in
rain mn
in
humidity
%
barometer
mb
20260504042726 55 190 0.0 3.0 0.00 0.00 0.00 41 1008.7
20260504041736 55 188 2.0 3.0 0.00 0.00 0.00 39 1008.8
20260504040729 56 188 1.0 4.0 0.00 0.00 0.00 47 1008.7
20260504035724 58 190 1.0 3.0 0.00 0.00 0.00 39 1008.7
20260504034730 62 200 2.0 11.0 0.00 0.00 0.00 32 1008.6
20260504033740 64 59 7.0 13.0 0.00 0.00 0.00 23 1008.4
20260504032747 64 96 8.0 12.0 0.00 0.00 0.00 24 1008.4
20260504031718 64 85 8.0 10.0 0.00 0.00 0.00 24 1008.4
20260504030748 64 94 6.0 10.0 0.00 0.00 0.00 24 1008.4
20260504025735 64 100 8.0 12.0 0.00 0.00 0.00 25 1008.4
20260504024720 64 65 6.0 12.0 0.00 0.00 0.00 26 1008.5
20260504023729 64 73 9.0 13.0 0.00 0.00 0.00 28 1008.4
20260504022737 65 66 3.0 8.0 0.00 0.00 0.00 26 1008.4
20260504021723 64 90 5.0 8.0 0.00 0.00 0.00 28 1008.4
20260504020733 65 128 3.0 4.0 0.00 0.00 0.00 35 1008.4
20260504015736 66 128 3.0 4.0 0.00 0.00 0.00 35 1008.5
20260504014729 68 128 2.0 4.0 0.00 0.00 0.00 34 1008.5
20260504013736 69 128 2.0 3.0 0.00 0.00 0.00 32 1008.6
20260504012723 70 194 2.0 3.0 0.00 0.00 0.00 34 1008.8
20260504011751 70 194 2.0 2.0 0.00 0.00 0.00 25 1008.8
20260504010721 71 194 1.0 2.0 0.00 0.00 0.00 27 1008.9
20260504005734 71 194 2.0 3.0 0.00 0.00 0.00 26 1009.0
20260504004741 72 194 2.0 4.0 0.00 0.00 0.00 23 1009.0
20260504003726 72 214 3.0 5.0 0.00 0.00 0.00 22 1009.2
20260504002753 72 157 4.0 6.0 0.00 0.00 0.00 19 1009.2
20260504001722 72 194 3.0 6.0 0.00 0.00 0.00 20 1009.3
20260504000722 72 198 4.0 6.0 0.00 0.00 0.00 23 1009.5
20260503235736 72 190 3.0 6.0 0.00 0.00 0.00 22 1009.5
20260503234722 72 205 3.0 7.0 0.00 0.00 0.00 27 1009.6
20260503233729 72 207 4.0 6.0 0.00 0.00 0.00 22 1009.6
20260503232720 72 225 4.0 9.0 0.00 0.00 0.00 26 1009.7
20260503231729 72 192 5.0 8.0 0.00 0.00 0.00 23 1009.7
20260503230718 73 236 6.0 9.0 0.00 0.00 0.00 20 1009.7
20260503225733 73 214 6.0 9.0 0.00 0.00 0.00 23 1009.8
20260503224726 73 169 5.0 10.0 0.00 0.00 0.00 24 1010.0
20260503223734 73 198 7.0 11.0 0.00 0.00 0.00 22 1010.1
20260503222722 73 172 7.0 10.0 0.00 0.00 0.00 24 1010.1
20260503221730 73 159 5.0 11.0 0.00 0.00 0.00 24 1010.2
20260503220724 73 192 7.0 10.0 0.00 0.00 0.00 20 1010.6
20260503215718 73 159 8.0 9.0 0.00 0.00 0.00 22 1010.7
20260503214723 73 234 3.0 6.0 0.00 0.00 0.00 22 1010.9
20260503213749 73 155 3.0 7.0 0.00 0.00 0.00 25 1011.1
20260503212717 73 206 5.0 9.0 0.00 0.00 0.00 23 1011.2
20260503211724 72 205 6.0 9.0 0.00 0.00 0.00 24 1011.3
20260503210731 72 165 4.0 10.0 0.00 0.00 0.00 23 1011.5
20260503205728 72 167 7.0 9.0 0.00 0.00 0.00 22 1011.8
20260503204755 72 216 3.0 7.0 0.00 0.00 0.00 22 1011.8
20260503203744 72 225 4.0 7.0 0.00 0.00 0.00 21 1012.0
20260503202729 71 259 6.0 9.0 0.00 0.00 0.00 25 1012.1
20260503201735 71 179 4.0 10.0 0.00 0.00 0.00 22 1012.3
20260503200722 71 215 5.0 10.0 0.00 0.00 0.00 19 1012.4
20260503195758 70 242 5.0 10.0 0.00 0.00 0.00 24 1012.5
20260503194722 70 215 3.0 9.0 0.00 0.00 0.00 27 1012.7
20260503193729 69 211 3.0 8.0 0.00 0.00 0.00 28 1012.9
20260503192735 69 217 6.0 8.0 0.00 0.00 0.00 25 1013.0
20260503191725 68 178 2.0 7.0 0.00 0.00 0.00 27 1013.0
20260503190730 68 205 4.0 7.0 0.00 0.00 0.00 28 1013.3
20260503185723 67 266 3.0 8.0 0.00 0.00 0.00 31 1013.4
20260503184730 66 201 5.0 8.0 0.00 0.00 0.00 30 1013.5
20260503183721 66 177 4.0 8.0 0.00 0.00 0.00 31 1013.6
20260503182731 65 214 5.0 6.0 0.00 0.00 0.00 33 1013.8
20260503181739 65 215 4.0 6.0 0.00 0.00 0.00 32 1013.9
20260503180724 64 175 3.0 5.0 0.00 0.00 0.00 30 1014.1
20260503175737 65 220 2.0 6.0 0.00 0.00 0.00 33 1014.1
20260503174724 64 360 2.0 8.0 0.00 0.00 0.00 34 1014.2
20260503173736 63 346 1.0 4.0 0.00 0.00 0.00 34 1014.3
20260503172723 62 340 2.0 5.0 0.00 0.00 0.00 38 1014.4
20260503171730 62 264 2.0 6.0 0.00 0.00 0.00 40 1014.5
20260503170735 61 349 3.0 6.0 0.00 0.00 0.00 37 1014.5
20260503150736 51 316 1.0 3.0 0.00 0.00 0.00 61 1015.4
20260503130752 38 11 0.0 0.0 0.00 0.00 0.00 77 1015.2
20260503110730 39 10 1.0 2.0 0.00 0.00 0.00 71 1015.3
20260503080736 46 92 0.0 1.0 0.00 0.00 0.00 59 1015.2
20260503072730 45 92 1.0 2.0 0.00 0.00 0.00 60 1015.1
20260503071745 45 92 0.0 2.0 0.00 0.00 0.00 59 1015.2
20260503070752 46 92 2.0 3.0 0.00 0.00 0.00 58 1015.3
20260503054728 47 105 2.0 4.0 0.00 0.00 0.00 58 1015.3
20260503053734 47 138 2.0 4.0 0.00 0.00 0.00 60 1015.3
20260503052723 47 138 0.0 3.0 0.00 0.00 0.00 61 1015.2
20260503051730 47 138 2.0 3.0 0.00 0.00 0.00 60 1015.2
20260503050721 49 138 3.0 4.0 0.00 0.00 0.00 57 1015.1
20260503045736 53 138 3.0 4.0 0.00 0.00 0.00 50 1015.2
20260503044725 54 129 1.0 3.0 0.00 0.00 0.00 43 1015.1
20260503043732 55 129 1.0 4.0 0.00 0.00 0.00 39 1015.3